Location: Koszewko
(53.2876°N, 14.9061°E)
Time: 21:35:38
(UTC+00:00)

USA 245 - Pass Details

Date: 03 March 2021
Orbit: 268 x 988 km, 97.9° (Epoch: 11 April)

Event Time Altitude Azimuth Distance (km) Brightness Sun altitude
Exits shadow 19:27:51 58° 82° (E) 1,051 4.3 -25.0°
Maximum altitude 19:28:10 59° 67° (ENE) 1,047 4.4 -25.0°
Drops below altitude 10° 19:34:17 10° 351° (N) 2,735 7.3 -25.8°
Sets 19:36:55 0° 348° (NNW) 3,715 8.1 -26.2°
